Météo par heure à Kysivka

Ce jour, 25 Juillet, Dimanche

Heure Température Précipitation Vent Pression Humidité
00:00 +19°C° 0 mm 2 m/s 748 mmHg 72%
01:00 +18°C° 0 mm 2 m/s 748 mmHg 76%
02:00 +18°C° 0 mm 2 m/s 748 mmHg 79%
03:00 +18°C° 0 mm 2 m/s 748 mmHg 78%
04:00 +18°C° 0 mm 2 m/s 749 mmHg 77%
05:00 +18°C° 0 mm 2 m/s 749 mmHg 76%
06:00 +20°C° 0 mm 2 m/s 749 mmHg 68%
07:00 +23°C° 0 mm 2 m/s 749 mmHg 59%
08:00 +26°C° 0 mm 2 m/s 750 mmHg 50%
09:00 +27°C° 0 mm 2 m/s 750 mmHg 46%
10:00 +28°C° 0 mm 2 m/s 750 mmHg 42%
11:00 +29°C° 0 mm 2 m/s 750 mmHg 37%
12:00 +30°C° 0 mm 2 m/s 750 mmHg 37%
13:00 +30°C° 0 mm 2 m/s 750 mmHg 36%
14:00 +30°C° 0 mm 2 m/s 750 mmHg 36%
15:00 +29°C° 0 mm 2 m/s 750 mmHg 38%
16:00 +29°C° 0 mm 2 m/s 750 mmHg 40%
17:00 +28°C° 0 mm 2 m/s 750 mmHg 43%
18:00 +27°C° 0 mm 2 m/s 750 mmHg 44%
19:00 +26°C° 0 mm 2 m/s 750 mmHg 45%
20:00 +24°C° 0 mm 2 m/s 750 mmHg 46%
21:00 +23°C° 0 mm 2 m/s 750 mmHg 48%
22:00 +21°C° 0 mm 3 m/s 751 mmHg 50%
23:00 +20°C° 0 mm 3 m/s 751 mmHg 51%

Demain, 26 Juillet, Lundi

Heure Température Précipitation Vent Pression Humidité
00:00 +19°C° 0 mm 3 m/s 751 mmHg 53%
01:00 +19°C° 0 mm 3 m/s 751 mmHg 55%
02:00 +18°C° 0 mm 3 m/s 751 mmHg 57%
03:00 +18°C° 0 mm 3 m/s 751 mmHg 58%
04:00 +18°C° 0 mm 3 m/s 751 mmHg 59%
05:00 +18°C° 0 mm 3 m/s 751 mmHg 60%
06:00 +21°C° 0 mm 3 m/s 752 mmHg 54%
07:00 +24°C° 0 mm 3 m/s 752 mmHg 48%
08:00 +27°C° 0 mm 3 m/s 752 mmHg 42%
09:00 +28°C° 0 mm 3 m/s 752 mmHg 38%
10:00 +29°C° 0 mm 3 m/s 752 mmHg 34%
11:00 +31°C° 0 mm 3 m/s 752 mmHg 31%
12:00 +31°C° 0 mm 3 m/s 751 mmHg 29%
13:00 +33°C° 0 mm 3 m/s 751 mmHg 28%
14:00 +32°C° 0 mm 2 m/s 751 mmHg 27%
15:00 +32°C° 0 mm 2 m/s 751 mmHg 28%
16:00 +32°C° 0 mm 2 m/s 750 mmHg 29%
17:00 +31°C° 0 mm 2 m/s 750 mmHg 30%
18:00 +30°C° 0 mm 3 m/s 750 mmHg 33%
19:00 +29°C° 0 mm 3 m/s 751 mmHg 36%
20:00 +27°C° 0 mm 3 m/s 751 mmHg 39%
21:00 +26°C° 0 mm 3 m/s 751 mmHg 43%
22:00 +24°C° 0 mm 3 m/s 751 mmHg 47%
23:00 +22°C° 0 mm 3 m/s 751 mmHg 51%

Après-demain, 27 Juillet, Mardi

Heure Température Précipitation Vent Pression Humidité
00:00 +21°C° 0 mm 3 m/s 751 mmHg 53%
01:00 +21°C° 0 mm 3 m/s 751 mmHg 55%
02:00 +20°C° 0 mm 3 m/s 751 mmHg 57%
03:00 +20°C° 0 mm 3 m/s 751 mmHg 58%
04:00 +20°C° 0 mm 3 m/s 751 mmHg 59%
05:00 +20°C° 0 mm 3 m/s 751 mmHg 59%
06:00 +22°C° 0 mm 3 m/s 751 mmHg 54%
07:00 +25°C° 0 mm 3 m/s 751 mmHg 48%
08:00 +27°C° 0 mm 3 m/s 751 mmHg 42%
09:00 +29°C° 0 mm 3 m/s 751 mmHg 39%
10:00 +30°C° 0 mm 2 m/s 751 mmHg 35%
11:00 +32°C° 0 mm 2 m/s 751 mmHg 31%
12:00 +32°C° 0 mm 2 m/s 751 mmHg 30%
13:00 +34°C° 0 mm 2 m/s 751 mmHg 28%
14:00 +35°C° 0 mm 2 m/s 750 mmHg 26%
15:00 +32°C° 0 mm 2 m/s 750 mmHg 30%
16:00 +31°C° 0 mm 3 m/s 750 mmHg 34%
17:00 +30°C° 0 mm 3 m/s 750 mmHg 38%
18:00 +28°C° 0 mm 3 m/s 750 mmHg 42%
19:00 +27°C° 0 mm 2 m/s 750 mmHg 45%
20:00 +26°C° 0 mm 2 m/s 750 mmHg 49%
21:00 +25°C° 0 mm 2 m/s 750 mmHg 51%
22:00 +25°C° 0 mm 2 m/s 750 mmHg 53%
23:00 +24°C° 0 mm 2 m/s 750 mmHg 55%

28 Juillet, Mercredi

Heure Température Précipitation Vent Pression Humidité
00:00 +24°C° 0 mm 2 m/s 750 mmHg 58%
01:00 +23°C° 0 mm 2 m/s 750 mmHg 61%
02:00 +21°C° 0 mm 2 m/s 750 mmHg 63%
03:00 +21°C° 0 mm 2 m/s 749 mmHg 64%
04:00 +21°C° 0 mm 2 m/s 749 mmHg 65%
05:00 +21°C° 0 mm 3 m/s 749 mmHg 66%
06:00 +24°C° 0 mm 3 m/s 749 mmHg 60%
07:00 +26°C° 0 mm 3 m/s 749 mmHg 53%
08:00 +29°C° 0 mm 4 m/s 749 mmHg 47%
09:00 +30°C° 0 mm 4 m/s 749 mmHg 42%
10:00 +33°C° 0 mm 5 m/s 748 mmHg 38%
11:00 +34°C° 0 mm 5 m/s 748 mmHg 33%
12:00 +34°C° 0 mm 6 m/s 748 mmHg 34%
13:00 +34°C° 0 mm 6 m/s 747 mmHg 34%
14:00 +34°C° 0 mm 6 m/s 747 mmHg 34%
15:00 +32°C° 0.1 mm 6 m/s 747 mmHg 42%
16:00 +29°C° 0.1 mm 6 m/s 747 mmHg 50%
17:00 +27°C° 0.1 mm 6 m/s 747 mmHg 58%
18:00 +25°C° 0.4 mm 5 m/s 747 mmHg 68%
19:00 +22°C° 0.4 mm 4 m/s 747 mmHg 78%
20:00 +20°C° 0.4 mm 3 m/s 747 mmHg 88%
21:00 +20°C° 0.8 mm 3 m/s 747 mmHg 86%
22:00 +21°C° 0.8 mm 3 m/s 746 mmHg 85%
23:00 +21°C° 0.8 mm 2 m/s 746 mmHg 84%

29 Juillet, Jeudi

Heure Température Précipitation Vent Pression Humidité
00:00 +20°C° 0 mm 2 m/s 746 mmHg 87%
01:00 +20°C° 0 mm 2 m/s 746 mmHg 89%
02:00 +19°C° 0 mm 2 m/s 746 mmHg 91%
03:00 +19°C° 0 mm 2 m/s 746 mmHg 91%
04:00 +20°C° 0 mm 2 m/s 746 mmHg 90%
05:00 +21°C° 0 mm 1 m/s 746 mmHg 90%
06:00 +23°C° 0 mm 1 m/s 746 mmHg 81%
07:00 +25°C° 0 mm 1 m/s 746 mmHg 73%
08:00 +27°C° 0 mm 2 m/s 746 mmHg 64%
09:00 +29°C° 0 mm 2 m/s 746 mmHg 56%
10:00 +30°C° 0 mm 3 m/s 746 mmHg 48%
11:00 +33°C° 0 mm 3 m/s 746 mmHg 40%
12:00 +33°C° 0 mm 4 m/s 746 mmHg 38%
13:00 +34°C° 0 mm 4 m/s 746 mmHg 37%
14:00 +34°C° 0 mm 4 m/s 745 mmHg 35%
15:00 +34°C° 0 mm 4 m/s 745 mmHg 36%
16:00 +33°C° 0 mm 4 m/s 745 mmHg 37%
17:00 +33°C° 0 mm 4 m/s 745 mmHg 38%
18:00 +30°C° 0 mm 3 m/s 745 mmHg 43%
19:00 +28°C° 0 mm 2 m/s 745 mmHg 48%
20:00 +26°C° 0 mm 1 m/s 745 mmHg 53%
21:00 +26°C° 0 mm 1 m/s 745 mmHg 55%
22:00 +25°C° 0 mm 2 m/s 745 mmHg 58%
23:00 +25°C° 0 mm 2 m/s 745 mmHg 60%

30 Juillet, Vendredi

Heure Température Précipitation Vent Pression Humidité
00:00 +24°C° 0.1 mm 2 m/s 745 mmHg 64%
01:00 +23°C° 0.1 mm 2 m/s 745 mmHg 68%
02:00 +23°C° 0.1 mm 2 m/s 745 mmHg 72%
03:00 +23°C° 0 mm 1 m/s 745 mmHg 72%
04:00 +23°C° 0 mm 1 m/s 746 mmHg 71%
05:00 +23°C° 0 mm 1 m/s 746 mmHg 71%
06:00 +25°C° 0 mm 1 m/s 746 mmHg 64%
07:00 +27°C° 0 mm 1 m/s 746 mmHg 57%
08:00 +29°C° 0 mm 1 m/s 746 mmHg 51%
09:00 +31°C° 0 mm 1 m/s 746 mmHg 46%
10:00 +32°C° 0 mm 1 m/s 746 mmHg 41%
11:00 +34°C° 0 mm 1 m/s 746 mmHg 36%
12:00 +33°C° 0 mm 1 m/s 746 mmHg 38%
13:00 +33°C° 0 mm 1 m/s 745 mmHg 39%
14:00 +33°C° 0 mm 1 m/s 745 mmHg 41%
15:00 +32°C° 0 mm 1 m/s 745 mmHg 41%
16:00 +32°C° 0 mm 1 m/s 745 mmHg 42%
17:00 +32°C° 0 mm 1 m/s 745 mmHg 43%
18:00 +30°C° 0 mm 2 m/s 745 mmHg 46%
19:00 +29°C° 0 mm 2 m/s 745 mmHg 49%
20:00 +28°C° 0 mm 2 m/s 745 mmHg 51%
21:00 +27°C° 0 mm 2 m/s 745 mmHg 52%
22:00 +27°C° 0 mm 2 m/s 745 mmHg 53%
23:00 +27°C° 0 mm 1 m/s 745 mmHg 54%
Voir plus

Nous avons besoin de votre consentement

Meteoprog et ses fournisseurs de services peuvent stocker et accéder à des données personnelles telles que des cookies, des identifiants d'appareils ou d'autres technologies similaires sur votre appareil et traiter ces données pour personnaliser le contenu et les publicités, ainsi que pour fournir des fonctionnalités de médias sociaux et analyser le trafic.

  • Stocker et/ou accéder à des informations sur votre appareil

    Des cookies, des identifiants d'appareils ou d'autres informations peuvent être stockés ou accessibles sur votre appareil aux fins indiquées ci-dessus.

  • Annonces et contenus personnalisés, mesure des annonces et des contenus, connaissance de l'audience et développement de produits

    Les annonces et le contenu peuvent être personnalisés en fonction d'un profil. D'autres données peuvent être ajoutées pour mieux personnaliser les annonces et le contenu. Les performances des publicités et du contenu peuvent être mesurées. Il est possible d'obtenir des informations sur le public qui a vu les publicités et le contenu. Ces données peuvent être utilisées pour développer ou améliorer l'expérience de l'utilisateur, les systèmes et les logiciels.

En cliquant sur "J'accepte", vous autorisez l'utilisation de cookies, des identifiants d'appareils, des balises web ou d'autres technologies similaires. Vos paramètres peuvent être modifiés dans le navigateur de votre appareil.

Dans certains cas, des intérêts légitimes peuvent être invoqués plutôt qu'un consentement. Vous pouvez en savoir plus à ce sujet dans notre Politique de confidentialité et de cookies.